1499169600.43,16458,16.31,74134.0,7.13,2.47,2.27,0,*70
1499169601.65,16459,16.31,74132.8,7.13,2.59,2.47,0,*78
1499169602.88,16460,16.38,74134.3,7.13,2.85,2.69,0,*7F
1499169604.1,16461,16.31,74130.0,7.13,2.39,2.25,0,*71
1499169605.33,16462,16.31,74132.0,7.11,2.65,2.43,0,*79
1499169606.56,16463,16.31,74132.5,7.13,2.59,2.47,0,*71
1499169607.78,16464,16.31,74132.0,7.13,2.73,2.59,0,*71
1499169608.99,16465,16.31,74130.8,7.13,2.13,1.79,0,*77
1499169610.24,16466,16.31,74130.8,7.11,1.17,0.87,0,*41
1499169611.47,16467,16.31,74128.8,7.09,1.09,0.83,0,*42
1499169612.69,16468,16.31,74130.5,7.07,0.13,-0.11,0,*5F
1499169613.93,16469,16.31,74130.3,7.03,-0.81,-1.13,0,*4F
1499169615.13,16470,16.38,74134.8,6.97,-0.97,-1.25,0,*49
1499169616.36,16471,16.38,74128.0,6.95,-0.89,-1.25,0,*45
1499169617.58,16472,16.38,74130.8,6.89,-1.17,-1.47,0,*79
1499169618.81,16473,16.38,74130.5,6.87,-0.61,-0.97,0,*7A
1499169620.0,16474,16.31,74126.5,6.83,0.25,-0.07,0,*6D
1499169621.23,16475,16.31,74124.8,6.81,0.47,0.13,0,*72
1499169622.47,16476,16.38,74130.5,6.81,0.55,0.25,0,*77
1499169623.69,16477,16.31,74126.8,6.75,0.63,0.29,0,*74
1499169624.88,16478,16.31,74126.3,6.75,0.47,0.05,0,*43
1499169626.05,16479,16.31,74124.3,6.75,0.01,-0.33,0,*68
1499169627.29,16480,16.31,74124.5,6.73,0.75,0.51,0,*72
1499169628.51,16481,16.38,74124.3,6.71,1.17,0.95,0,*4C
1499169629.73,16482,16.38,74126.5,6.67,1.17,1.05,0,*70
1499169630.98,16483,16.31,74120.3,6.69,1.43,1.21,0,*78
1499169632.2,16484,16.31,74120.0,6.69,1.93,1.79,0,*7F
1499169633.46,16485,16.38,74124.3,6.69,2.25,2.01,0,*7C
1499169634.69,16486,16.38,74124.3,6.71,2.17,1.93,0,*7F
1499169635.94,16487,16.31,74124.5,6.73,2.09,1.85,0,*74
1499169637.17,16488,16.38,74126.0,6.71,2.17,1.93,0,*71
1499169638.39,16489,16.31,74124.5,6.73,2.35,2.21,0,*78
1499169639.64,16490,16.38,74126.3,6.73,1.93,1.71,0,*79
1499169640.86,16491,16.38,74124.8,6.71,1.89,1.71,0,*71
1499169642.06,16492,16.31,74124.8,6.71,2.05,1.79,0,*7D
1499169643.29,16493,16.38,74128.5,6.71,1.71,1.47,0,*71
1499169644.49,16494,16.38,74124.5,6.71,1.83,1.67,0,*79
1499169645.71,16495,16.38,74124.0,6.71,2.01,1.71,0,*76
1499169646.93,16496,16.38,74124.3,6.71,1.67,1.43,0,*77
1499169648.16,16497,16.31,74122.5,6.69,1.79,1.55,0,*77
1499169649.4,16498,16.38,74124.3,6.69,1.71,1.43,0,*77
1499169650.66,16499,16.38,74124.5,6.69,1.55,1.33,0,*77
1499169651.9,16500,16.38,74132.8,6.69,1.89,1.71,0,*71
1499169653.15,16501,16.38,74134.8,6.69,1.93,1.71,0,*7B
1499169654.37,16502,16.38,74134.0,6.67,0.95,0.71,0,*70
1499169655.58,16503,16.38,74134.5,6.67,1.29,1.05,0,*75
1499169656.78,16504,16.38,74132.8,6.63,1.01,0.67,0,*49
1499169657.99,16505,16.38,74134.8,6.63,0.67,0.47,0,*7B
1499169659.22,16506,16.31,74132.8,6.63,0.87,0.47,0,*76
1499169660.46,16507,16.38,74134.5,6.61,0.55,0.25,0,*7E
1499169661.69,16508,16.38,74136.0,6.59,0.25,-0.23,0,*56
1499169662.91,16509,16.38,74134.0,6.53,-1.21,-1.67,0,*74
1499169664.15,16510,16.31,74128.3,6.49,-1.87,-2.03,0,*7A
1499169665.36,16511,16.38,74128.3,6.45,-1.51,-1.87,0,*73
1499169666.55,16512,16.38,74128.5,6.41,-0.81,-1.21,0,*44
1499169667.73,16513,16.38,74132.8,6.37,-0.37,-0.73,0,*7F
1499169668.95,16514,16.38,74128.8,6.37,0.83,0.67,0,*72
1499169670.17,16515,16.38,74132.3,6.37,0.91,0.67,0,*70
1499169671.39,16516,16.31,74132.3,6.37,0.91,0.71,0,*74
1499169672.64,16517,16.38,74138.3,6.35,1.17,0.95,0,*42
1499169673.86,16518,16.38,74138.5,6.35,0.17,-0.15,0,*59
1499169675.08,16519,16.38,74138.5,6.31,-0.19,-0.57,0,*79
1499169676.29,16520,16.38,74132.0,6.27,-0.49,-0.73,0,*77
1499169677.53,16521,16.38,74138.5,6.27,-0.73,-1.01,0,*4B
1499169678.76,16522,16.38,74132.8,6.23,-0.27,-0.61,0,*7A
1499169679.94,16523,16.31,74132.8,6.19,-0.29,-0.65,0,*78
1499169681.12,16524,16.38,74134.8,6.21,-0.53,-0.81,0,*73
1499169682.31,16525,16.38,74136.3,6.19,-0.33,-0.73,0,*72
1499169683.51,16526,16.38,74130.0,6.17,0.01,-0.33,0,*67
1499169684.7,16527,16.38,74130.8,6.15,0.25,-0.03,0,*61
1499169685.95,16528,16.31,74128.5,6.13,0.87,0.55,0,*7E
1499169687.17,16529,16.38,74136.5,6.13,0.05,-0.27,0,*6D
1499169688.39,16530,16.38,74142.0,6.09,-0.19,-0.65,0,*78
1499169689.62,16531,16.38,74122.0,6.09,1.01,0.79,0,*4C
1499169690.85,16532,16.38,74126.3,6.07,1.25,0.79,0,*47
1499169692.06,16533,16.38,74116.3,6.07,0.41,-0.11,0,*56
1499169693.29,16534,16.38,74126.8,6.05,0.13,-0.33,0,*54
1499169694.53,16535,16.38,74124.3,6.05,0.51,0.25,0,*79
1499169695.77,16536,16.38,74130.8,6.07,1.17,0.91,0,*44
1499169697.02,16537,16.38,74134.3,6.05,0.75,0.47,0,*79
1499169698.26,16538,16.31,74124.5,6.05,0.59,0.29,0,*70
1499169699.5,16539,16.38,74124.0,6.05,0.29,0.13,0,*7F
1499169700.75,16540,16.38,74120.3,6.05,0.75,0.63,0,*7F
1499169701.99,16541,16.38,74108.8,6.01,0.33,0.21,0,*7E
1499169703.23,16542,16.38,74110.0,6.01,0.67,0.47,0,*7C
1499169704.47,16543,16.38,74120.0,6.03,1.71,1.55,0,*7B
1499169705.7,16544,16.38,74128.5,6.03,1.09,0.83,0,*49
1499169706.9,16545,16.38,74128.3,6.03,0.01,-0.27,0,*62
1499169708.1,16546,16.38,74126.8,6.01,0.09,-0.19,0,*66
1499169709.32,16547,16.38,74118.0,6.01,0.01,-0.27,0,*62
1499169710.53,16548,16.38,74122.0,5.99,-0.23,-0.57,0,*75
1499169711.77,16549,16.38,74124.3,5.97,-0.23,-0.45,0,*79
1499169712.99,16550,16.38,74124.0,5.95,0.13,-0.23,0,*5D
1499169714.2,16551,16.38,74102.8,5.93,-0.41,-0.53,0,*77
1499169715.43,16552,16.38,74100.8,5.95,0.67,0.47,0,*73
1499169716.68,16553,16.38,74110.8,5.93,1.89,1.71,0,*71
1499169717.94,16554,16.38,74122.8,5.93,1.09,0.75,0,*4B
1499169719.2,16555,16.38,74126.5,5.93,-0.85,-1.13,0,*4E
1499169720.4,16556,16.38,74130.5,5.91,-0.19,-0.49,0,*74
1499169721.6,16557,16.38,74138.3,5.89,-0.29,-0.53,0,*74
1499169722.8,16558,16.38,74130.8,5.83,0.37,0.17,0,*7E
1499169724.01,16559,16.38,74124.8,5.85,-0.11,-0.37,0,*7F
1499169725.21,16560,16.38,74128.8,5.83,0.67,0.41,0,*73
1499169726.41,16561,16.31,74134.3,5.83,-0.27,-0.61,0,*74
1499169727.61,16562,16.38,74136.3,5.81,-0.41,-0.73,0,*76
1499169728.8,16563,16.38,74132.5,5.79,-0.11,-0.41,0,*74
1499169729.96,16564,16.31,74124.5,5.79,0.01,-0.37,0,*6E
1499169731.14,16565,16.38,74124.5,5.79,0.33,0.01,0,*46
1499169732.36,16566,16.38,74122.8,5.77,-0.03,-0.27,0,*4C
1499169733.54,16567,16.38,74120.5,5.75,0.01,-0.23,0,*64
1499169734.73,16568,16.38,74116.8,5.75,-0.23,-0.61,0,*70
1499169735.94,16569,16.38,74120.0,5.73,-0.11,-0.37,0,*75
1499169737.1,16570,16.38,74116.8,5.71,0.09,-0.15,0,*6B
1499169738.29,16571,16.38,74126.0,5.71,0.01,-0.27,0,*63
1499169739.49,16572,16.38,74122.8,5.69,0.25,0.01,0,*46
1499169740.72,16573,16.38,74124.0,5.69,-0.23,-0.41,0,*75
1499169741.9,16574,16.38,74122.0,5.67,0.29,0.05,0,*46
1499169743.09,16575,16.38,74118.8,5.67,0.17,-0.07,0,*65
1499169744.29,16576,16.38,74126.5,5.67,0.37,0.17,0,*78
1499169745.49,16577,16.38,74124.0,5.67,1.13,1.05,0,*7C
1499169746.71,16578,16.38,74124.0,5.63,1.47,1.37,0,*77
1499169747.93,16579,16.38,74124.3,5.63,0.79,0.63,0,*7A
1499169749.12,16580,16.38,74124.3,5.67,1.43,1.41,0,*71
1499169750.36,16581,16.38,74120.5,5.69,2.21,2.05,0,*7A
1499169751.6,16582,16.38,74122.3,5.69,2.21,2.05,0,*79
1499169752.84,16583,16.38,74116.0,5.69,1.67,1.47,0,*7C
1499169754.08,16584,16.38,74118.3,5.69,1.47,1.25,0,*7D
1499169755.27,16585,16.38,74118.3,5.71,2.09,1.83,0,*70
1499169756.48,16586,16.38,74118.0,5.71,2.09,1.89,0,*79
1499169757.73,16587,16.38,74120.0,5.73,2.43,2.21,0,*75
1499169758.94,16588,16.38,74116.8,5.73,2.31,1.93,0,*75
1499169760.16,16589,16.31,74118.0,5.77,2.35,1.97,0,*70
1499169761.34,16590,16.38,74122.5,5.79,2.99,2.61,0,*7A
1499169762.59,16591,16.38,74128.0,5.81,3.15,2.73,0,*7A
1499169763.77,16592,16.38,74124.0,5.83,2.99,2.61,0,*7D
1499169764.98,16593,16.38,74128.5,5.83,3.25,2.81,0,*74
1499169766.2,16594,16.31,74124.0,5.85,3.29,2.77,0,*70
1499169767.42,16595,16.38,74126.8,5.91,3.75,3.25,0,*7B
1499169768.62,16596,16.38,74124.8,5.91,2.77,2.27,0,*78
1499169769.86,16597,16.38,74120.8,5.95,3.15,2.77,0,*7D
1499169771.08,16598,16.38,74122.0,5.99,3.63,3.41,0,*7B
1499169772.29,16599,16.38,74120.5,5.99,4.01,3.93,0,*76
1499169773.47,16600,16.38,74120.3,6.03,4.19,4.15,0,*75
1499169774.65,16601,16.38,74120.0,6.07,4.49,4.45,0,*70
1499169775.86,16602,16.38,74122.3,6.13,4.37,4.27,0,*7B
1499169777.04,16603,16.38,74126.0,6.15,4.27,4.27,0,*7D
1499169778.22,16604,16.38,74126.8,6.19,4.57,4.49,0,*79
1499169779.39,16605,16.38,74124.0,6.21,4.33,4.27,0,*79
1499169780.63,16606,16.38,74124.0,6.23,4.31,4.27,0,*7A
1499169781.81,16607,16.38,74124.5,6.25,4.49,4.41,0,*72
1499169782.99,16608,16.38,74126.5,6.29,4.11,3.93,0,*74
1499169784.22,16609,16.38,74128.3,6.31,3.53,3.25,0,*70
1499169785.45,16610,16.31,74124.0,6.31,3.97,3.85,0,*7A
1499169786.68,16611,16.38,74130.3,6.35,3.81,3.67,0,*74
1499169787.91,16612,16.38,74132.3,6.35,3.79,3.59,0,*7D
1499169789.08,16613,16.38,74134.5,6.37,3.59,3.59,0,*7C
1499169790.31,16614,16.38,74136.0,6.39,3.49,3.25,0,*7F
1499169791.57,16615,16.38,74134.5,6.39,3.15,3.15,0,*74
1499169792.78,16616,16.38,74136.0,6.41,3.53,3.25,0,*79
1499169794.03,16617,16.38,74136.8,6.43,3.67,3.53,0,*7C
1499169795.26,16618,16.38,74138.0,6.43,3.45,3.25,0,*72
1499169796.48,16619,16.38,74138.3,6.43,3.19,2.95,0,*70
1499169797.68,16620,16.38,74138.3,6.45,2.99,2.73,0,*7D
1499169798.91,16621,16.38,74136.8,6.45,3.33,3.07,0,*7F
1499169800.11,16622,16.38,74134.8,6.45,2.95,2.77,0,*77
1499169801.33,16623,16.38,74136.5,6.47,3.29,3.07,0,*74
1499169802.59,16624,16.38,74132.3,6.47,2.85,2.51,0,*76
1499169803.84,16625,16.38,74134.0,6.47,2.77,2.51,0,*7A
1499169805.07,16626,16.38,74132.8,6.45,2.17,1.89,0,*7B
1499169806.29,16627,16.38,74134.0,6.47,1.79,1.51,0,*76
1499169807.54,16628,16.38,74136.0,6.47,1.89,1.67,0,*73
1499169808.76,16629,16.38,74138.8,6.47,2.39,2.27,0,*7D
1499169810.02,16630,16.38,74138.3,6.47,2.89,2.73,0,*7F
1499169811.21,16631,16.38,74142.8,6.45,1.89,1.75,0,*7A
1499169812.44,16632,16.38,74142.0,6.45,2.39,2.17,0,*76
1499169813.67,16633,16.38,74144.3,6.47,2.39,2.35,0,*75
1499169814.92,16634,16.38,74146.0,6.47,2.69,2.39,0,*7B
1499169816.18,16635,16.38,74144.5,6.47,2.39,2.17,0,*73
1499169817.41,16636,16.38,74142.5,6.47,2.05,1.79,0,*74
1499169818.61,16637,16.38,74142.5,6.47,2.95,2.61,0,*76
1499169819.83,16638,16.38,74142.0,6.47,3.55,3.19,0,*7A
1499169821.06,16639,16.38,74140.0,6.49,3.71,3.45,0,*7A
1499169822.3,16640,16.38,74140.0,6.51,3.89,3.79,0,*75
1499169823.48,16641,16.38,74142.5,6.59,4.27,4.15,0,*72
1499169824.66,16642,16.38,74140.8,6.59,4.57,4.53,0,*74
1499169825.84,16643,16.38,74140.0,6.63,4.49,4.23,0,*74
1499169827.06,16644,16.38,74138.8,6.65,4.01,3.85,0,*72
1499169828.28,16645,16.38,74138.8,6.65,4.31,4.11,0,*7A
1499169829.46,16646,16.38,74140.8,6.71,4.41,4.19,0,*73
1499169830.66,16647,16.38,74138.3,6.71,4.67,4.49,0,*73
1499169831.88,16648,16.38,74140.8,6.73,4.81,4.59,0,*77
1499169833.08,16649,16.38,74140.0,6.79,4.33,4.05,0,*7C
1499169834.29,16650,16.38,74136.0,6.79,4.05,3.93,0,*79
1499169835.51,16651,16.38,74136.0,6.83,3.97,3.67,0,*7A
1499169836.74,16652,16.38,74138.8,6.81,4.31,4.15,0,*72
1499169837.95,16653,16.38,74136.0,6.83,4.63,4.41,0,*77
1499169839.18,16654,16.38,74138.3,6.87,4.67,4.45,0,*74
1499169840.35,16655,16.38,74138.5,6.89,4.57,4.27,0,*7C
1499169841.56,16656,16.38,74134.5,6.91,4.15,3.89,0,*73
1499169842.77,16657,16.38,74136.0,6.93,4.15,3.67,0,*70
1499169843.93,16658,16.38,74132.0,6.93,4.49,4.15,0,*74
1499169845.14,16659,16.38,74132.5,6.97,4.79,4.41,0,*73
1499169846.34,16660,16.38,74128.8,6.99,5.07,4.81,0,*73
1499169847.55,16661,16.38,74132.5,7.05,5.23,5.01,0,*79
1499169848.75,16662,16.38,74128.3,7.09,5.33,5.05,0,*73
1499169849.95,16663,16.38,74128.0,7.09,4.67,4.53,0,*70
1499169851.16,16664,16.38,74130.3,7.13,5.11,4.93,0,*70
1499169852.39,16665,16.38,74130.8,7.15,5.51,5.19,0,*70
1499169853.59,16666,16.38,74130.8,7.17,5.37,4.97,0,*76
1499169854.79,16667,16.38,74128.3,7.25,4.63,4.11,0,*78
1499169856.0,16668,16.38,74130.5,7.25,4.97,4.49,0,*71
1499169857.22,16669,16.38,74132.3,7.27,4.75,4.15,0,*77
1499169858.45,16670,16.38,74128.3,7.31,4.75,4.15,0,*78
1499169859.67,16671,16.38,74134.0,7.31,4.53,3.75,0,*7C
1499169860.91,16672,16.38,74136.5,7.35,5.05,4.33,0,*7C
1499169862.11,16673,16.38,74140.5,7.37,4.97,4.11,0,*75
1499169863.37,16674,16.38,74140.5,7.39,4.05,3.37,0,*74
1499169864.59,16675,16.38,74142.3,7.41,3.37,2.69,0,*76
1499169865.8,16676,16.38,74134.5,7.41,3.15,2.65,0,*79
1499169867.05,16677,16.38,74136.0,7.43,3.37,3.03,0,*7B
1499169868.25,16678,16.38,74136.0,7.43,3.25,2.99,0,*75
1499169869.48,16679,16.38,74136.8,7.43,3.25,3.03,0,*76
1499169870.7,16680,16.38,74134.5,7.47,2.95,2.69,0,*73
1499169871.95,16681,16.38,74132.3,7.47,2.59,2.25,0,*7A
1499169873.15,16682,16.38,74134.8,7.47,2.35,2.27,0,*71
1499169874.38,16683,16.38,74134.5,7.49,2.61,2.85,0,*77
1499169875.63,16684,16.38,74138.0,7.47,3.45,3.67,0,*74
1499169876.86,16685,16.38,74140.5,7.49,3.29,3.33,0,*70
1499169878.12,16686,16.38,74142.3,7.49,2.81,2.85,0,*7C
1499169879.37,16687,16.38,74146.3,7.49,2.01,2.21,0,*7B
1499169880.62,16688,16.38,74142.3,7.49,1.89,1.97,0,*79
1499169881.83,16689,16.38,74142.8,7.47,1.51,1.41,0,*78
1499169883.06,16690,16.38,74140.5,7.43,1.33,1.01,0,*74
1499169884.26,16691,16.38,74140.0,7.41,1.01,0.79,0,*48
1499169885.48,16692,16.38,74140.3,7.39,0.97,0.63,0,*71
1499169886.66,16693,16.38,74134.0,7.37,-0.29,-0.57,0,*7C
1499169887.88,16694,16.38,74134.3,7.33,1.43,1.63,0,*74
1499169889.12,16695,16.38,74132.3,7.33,2.09,2.13,0,*7C
1499169890.35,16696,16.38,74134.0,7.33,2.43,2.47,0,*70
1499169891.58,16697,16.38,74130.8,7.33,2.43,2.55,0,*72
1499169892.78,16698,16.38,74134.5,7.33,2.43,2.35,0,*7B
1499169894.02,16699,16.38,74132.3,7.33,1.93,1.85,0,*7C
1499169895.25,16700,16.38,74128.5,7.29,1.55,1.37,0,*75
1499169896.48,16701,16.38,74128.3,7.29,1.59,1.37,0,*78
1499169897.72,16702,16.38,74130.5,7.29,1.17,0.87,0,*4B
1499169898.97,16703,16.38,74130.0,7.27,1.13,0.95,0,*43
1499169900.19,16704,16.38,74120.8,7.25,1.63,1.43,0,*7B
1499169901.41,16705,16.38,74120.3,7.25,1.43,1.25,0,*78
1499169902.65,16706,16.38,74120.8,7.21,1.09,1.09,0,*7F
1499169903.85,16707,16.38,74122.8,7.21,2.31,2.21,0,*7F
1499169905.06,16708,16.38,74120.3,7.21,1.85,1.83,0,*77
1499169906.31,16709,16.38,74118.5,7.19,1.59,1.55,0,*77
1499169907.53,16710,16.38,74126.0,7.19,1.89,1.83,0,*79
1499169908.78,16711,16.38,74126.8,7.19,1.43,1.37,0,*71
1499169910.02,16712,16.38,74130.8,7.15,1.17,1.05,0,*7E
1499169911.26,16713,16.38,74134.5,7.15,0.71,0.33,0,*7A
1499169912.42,16714,16.38,74134.0,7.13,0.43,-0.03,0,*64
1499169913.66,16715,16.38,74132.5,7.11,0.13,-0.23,0,*50
1499169914.87,16716,16.38,74122.3,7.09,-0.27,-0.73,0,*75
1499169916.09,16717,16.38,74124.8,7.05,0.51,0.21,0,*7E
1499169917.31,16718,16.38,74128.3,7.03,0.17,-0.49,0,*56
1499169918.51,16719,16.38,74128.8,7.03,0.09,-0.49,0,*68
1499169919.71,16720,16.38,74134.3,6.99,-0.33,-0.77,0,*79
1499169920.91,16721,16.38,74140.3,6.97,-0.65,-1.09,0,*4D
1499169922.14,16722,16.38,74140.3,6.95,-0.61,-1.01,0,*40
1499169923.33,16723,16.38,74132.8,6.93,-0.61,-0.93,0,*7D
1499169924.55,16724,16.38,74134.0,6.91,-0.81,-1.25,0,*4A
1499169925.76,16725,16.38,74124.8,6.89,-0.93,-1.21,0,*45
1499169926.96,16726,16.38,74130.0,6.85,-0.69,-0.89,0,*7C
1499169928.19,16727,16.38,74122.8,6.81,-0.53,-1.01,0,*41
1499169929.39,16728,16.38,74120.5,6.81,-0.53,-1.29,0,*44
1499169930.63,16729,16.38,74118.3,6.79,-0.97,-1.91,0,*49
1499169931.84,16730,16.38,74114.5,6.75,-1.87,-3.11,0,*77
1499169933.06,16731,16.38,74128.0,6.71,-1.67,-2.67,0,*7C
1499169934.3,16732,16.38,74126.5,6.69,-1.63,-2.63,0,*76
1499169935.49,16733,16.38,74126.3,6.67,-1.67,-2.19,0,*70
1499169936.73,16734,16.38,74124.8,6.63,-1.43,-1.43,0,*79
1499169937.92,16735,16.38,74128.0,6.63,-1.33,-1.33,0,*78
1499169939.12,16736,16.38,74126.8,6.63,-1.71,-1.71,0,*7B
1499169940.37,16737,16.38,74130.3,6.59,-1.87,-1.87,0,*73
1499169941.57,16738,16.38,74134.5,6.59,-1.17,-1.17,0,*7C
1499169942.81,16739,16.38,74132.5,6.53,-1.47,-1.55,0,*74
1499169944.08,16740,16.38,74132.5,6.53,-2.11,-2.11,0,*79
1499169945.33,16741,16.38,74132.5,6.49,-1.39,-1.35,0,*7F
1499169946.53,16742,16.38,74136.0,6.47,-0.65,-0.65,0,*7E
1499169947.71,16743,16.38,74128.3,6.45,-0.41,-0.29,0,*73
1499169948.92,16744,16.38,74130.0,6.45,-1.43,-1.17,0,*7B
1499169950.13,16745,16.38,74120.5,6.45,-2.67,-1.75,0,*7B
1499169951.37,16746,16.38,74122.5,6.43,-2.83,-1.43,0,*71
1499169952.61,16747,16.38,74124.3,6.41,-3.43,-1.83,0,*73
1499169953.84,16748,16.38,74130.8,6.37,-2.51,-1.13,0,*76
1499169955.04,16749,16.38,74132.5,6.37,-1.51,-0.27,0,*42
1499169956.22,16750,16.38,74132.8,6.37,-0.81,0.09,0,*67
1499169957.41,16751,16.38,74128.3,6.37,-0.81,-0.15,0,*76
1499169958.59,16752,16.38,74122.5,6.37,-1.33,-0.53,0,*4F
1499169959.83,16753,16.38,74128.3,6.31,-0.85,-0.11,0,*72
1499169961.06,16754,16.38,74138.3,6.35,-0.49,0.37,0,*58
1499169962.28,16755,16.38,74136.3,6.35,-0.07,0.83,0,*6C
1499169963.5,16756,16.38,74142.0,6.35,-0.03,0.83,0,*6B
1499169964.74,16757,16.38,74136.0,6.35,0.67,1.67,0,*4E
1499169965.97,16758,16.38,74138.0,6.37,0.91,1.85,0,*46
1499169967.2,16759,16.38,74136.0,6.39,0.95,1.79,0,*4E
1499169968.44,16760,16.38,74136.8,6.39,0.87,1.59,0,*45
1499169969.66,16761,16.38,74138.8,6.41,0.37,0.91,0,*75
1499169970.88,16762,16.38,74146.0,6.41,-0.23,0.25,0,*51
1499169972.13,16763,16.44,74150.5,6.39,0.47,0.87,0,*78
1499169973.37,16764,16.38,74140.5,6.39,-0.27,0.13,0,*59
1499169974.59,16765,16.38,74144.5,6.39,-0.03,0.33,0,*6C
1499169975.77,16766,16.38,74136.5,6.37,-0.53,-0.29,0,*72
1499169977.01,16767,16.38,74142.0,6.35,-1.13,-0.77,0,*4F
1499169978.22,16768,16.38,74138.0,6.31,-0.69,-0.69,0,*77
1499169979.44,16769,16.38,74142.0,6.27,-0.45,-0.49,0,*7D
1499169980.65,16770,16.38,74132.8,6.27,-0.57,-0.49,0,*76
1499169981.85,16771,16.38,74134.3,6.25,-1.29,-1.17,0,*77
1499169983.12,16772,16.38,74128.8,6.23,-1.43,-1.13,0,*7A
1499169984.34,16773,16.38,74128.0,6.19,-2.23,-1.83,0,*7E
1499169985.59,16774,16.38,74124.3,6.17,-1.71,-1.35,0,*7E
1499169986.78,16775,16.38,74128.0,6.15,-1.55,-1.17,0,*7B
1499169988.02,16776,16.38,74130.5,6.09,-0.93,-0.73,0,*7D
1499169989.26,16777,16.38,74130.3,6.07,-0.97,-0.85,0,*7F
1499169990.49,16778,16.38,74128.0,6.05,-0.85,-0.81,0,*75
1499169991.72,16779,16.38,74126.3,6.05,-0.81,-0.89,0,*78
1499169992.97,16780,16.38,74128.5,6.01,-2.55,-2.79,0,*7C
1499169994.24,16781,16.38,74136.3,5.97,-1.87,-1.99,0,*70
1499169995.52,16782,16.38,74128.3,5.93,-1.13,-1.47,0,*79
1499169996.73,16783,16.44,74126.3,5.91,-0.97,-1.25,0,*43
1499169997.96,16784,16.38,74124.0,5.89,-1.33,-1.67,0,*74
1499169999.18,16785,16.38,74118.0,5.85,-0.69,-1.05,0,*43
1499170000.4,16786,16.38,74124.5,5.83,-1.43,-1.71,0,*7C
1499170001.63,16787,16.38,74132.8,5.81,-0.97,-1.17,0,*47
1499170002.8,16788,16.38,74130.5,5.79,-0.49,-0.65,0,*78
1499170004.0,16789,16.44,74134.3,5.77,-0.19,-0.53,0,*77
1499170005.2,16790,16.38,74126.0,5.77,-0.15,-0.45,0,*74
1499170006.39,16791,16.44,74128.3,5.75,-0.61,-1.09,0,*4D
1499170007.66,16792,16.38,74120.8,5.73,-1.05,-1.47,0,*71
1499170008.87,16793,16.38,74112.8,5.71,-1.83,-2.23,0,*7D
1499170010.08,16794,16.38,74096.0,5.67,-2.55,-2.95,0,*78
1499170011.31,16795,16.38,74090.0,5.61,-2.23,-2.71,0,*74
1499170012.55,16796,16.38,74098.0,5.57,-1.71,-2.11,0,*70
1499170013.74,16797,16.38,74104.0,5.53,-1.29,-1.55,0,*7B
1499170014.92,16798,16.38,74114.0,5.53,-0.81,-1.17,0,*41
1499170016.1,16799,16.38,74114.8,5.45,-1.75,-2.19,0,*70
1499170017.32,16800,16.38,74120.5,5.49,-1.99,-2.35,0,*7F
1499170018.53,16801,16.38,74122.5,5.41,-1.43,-1.79,0,*7A
1499170019.77,16802,16.38,74130.0,5.41,-1.09,-1.39,0,*73
1499170021.0,16803,16.38,74130.8,5.41,-1.09,-1.43,0,*7F
1499170022.21,16804,16.38,74134.8,5.37,-1.01,-1.33,0,*76
1499170023.45,16805,16.38,74132.0,5.35,-0.81,-1.01,0,*4D
1499170024.66,16806,16.38,74134.5,5.35,-0.65,-0.81,0,*7D
1499170025.87,16807,16.38,74132.5,5.33,-0.73,-1.05,0,*40
1499170027.14,16808,16.38,74134.5,5.31,-1.05,-1.39,0,*72
1499170028.36,16809,16.38,74136.3,5.31,-0.57,-0.85,0,*73
1499170029.6,16810,16.38,74132.5,5.31,-0.97,-1.21,0,*48
1499170030.78,16811,16.38,74140.0,5.29,-0.57,-0.77,0,*7E
1499170031.99,16812,16.44,74134.8,5.25,-0.81,-1.01,0,*4A
1499170033.21,16813,16.38,74128.0,5.23,-1.01,-1.29,0,*7E
1499170034.41,16814,16.38,74130.8,5.23,-0.73,-1.01,0,*47
1499170035.64,16815,16.38,74128.8,5.21,-0.65,-1.01,0,*43
1499170036.85,16816,16.38,74120.5,5.19,-0.69,-1.09,0,*4F
1499170038.06,16817,16.38,74120.3,5.19,-0.77,-1.05,0,*4D
1499170039.29,16818,16.38,74122.8,5.17,-0.97,-1.29,0,*4C
1499170040.51,16819,16.44,74130.8,5.15,-0.97,-1.21,0,*47
1499170041.74,16820,16.38,74132.5,5.13,-0.97,-1.21,0,*4B
1499170042.95,16821,16.38,74134.0,5.11,-0.97,-1.25,0,*4C
1499170044.13,16822,16.38,74130.5,5.11,-0.53,-0.77,0,*71
1499170045.31,16823,16.38,74130.3,5.11,-0.49,-0.73,0,*7F
1499170046.49,16824,16.38,74134.8,5.07,-0.03,-0.19,0,*4D
1499170047.69,16825,16.38,74128.0,5.09,0.05,-0.19,0,*69
1499170048.91,16826,16.38,74126.8,5.09,-0.03,-0.27,0,*4C
1499170050.12,16827,16.38,74128.5,5.09,0.33,0.09,0,*42
1499170051.35,16828,16.44,74130.5,5.09,0.33,0.17,0,*72
1499170052.57,16829,16.38,74126.0,5.07,0.71,0.59,0,*71
1499170053.77,16830,16.38,74122.0,5.07,1.01,0.79,0,*4D
1499170055.0,16831,16.44,74124.3,5.09,1.33,1.05,0,*79
1499170056.26,16832,16.38,74122.5,5.09,1.33,1.17,0,*79
1499170057.48,16833,16.38,74120.8,5.11,1.55,1.47,0,*74
1499170058.73,16834,16.38,74124.0,5.13,1.47,1.37,0,*75
1499170059.97,16835,16.38,74126.8,5.13,1.51,1.25,0,*70
1499170061.22,16836,16.38,74130.5,5.13,0.87,0.51,0,*7B
1499170062.42,16837,16.38,74130.5,5.13,0.37,0.05,0,*40
1499170063.64,16838,16.38,74134.5,5.11,0.55,0.25,0,*7B
1499170064.84,16839,16.38,74132.0,5.11,1.05,0.75,0,*4B
1499170066.09,16840,16.38,74132.3,5.13,1.33,0.83,0,*4B
1499170067.31,16841,16.38,74130.8,5.11,0.37,0.21,0,*75
1499170068.5,16842,16.38,74128.0,5.11,0.09,-0.27,0,*60
1499170069.67,16843,16.38,74128.5,5.11,-0.15,-0.53,0,*72
1499170070.87,16844,16.38,74130.0,5.09,-0.33,-0.57,0,*7C
1499170072.11,16845,16.38,74130.5,5.09,0.59,0.41,0,*76
1499170073.35,16846,16.38,74130.0,5.09,0.91,0.71,0,*72
1499170074.59,16847,16.38,74126.3,5.09,1.29,1.05,0,*73
1499170075.84,16848,16.38,74130.0,5.09,0.79,0.55,0,*7C
1499170077.07,16849,16.38,74132.0,5.09,0.67,0.59,0,*7E
1499170078.29,16850,16.38,74132.3,5.09,1.05,0.95,0,*43
1499170079.54,16851,16.38,74128.5,5.09,1.51,1.33,0,*7E
1499170080.79,16852,16.38,74132.0,5.09,1.63,1.43,0,*7B
1499170082.04,16853,16.38,74128.0,5.09,1.33,1.13,0,*7A
1499170083.28,16854,16.38,74128.0,5.11,1.33,1.17,0,*70
1499170084.51,16855,16.38,74126.0,5.11,1.33,1.21,0,*74
1499170085.73,16856,16.38,74122.8,5.13,1.51,1.41,0,*77
1499170086.98,16857,16.38,74130.0,5.13,1.37,1.13,0,*71
1499170088.23,16858,16.38,74128.0,5.13,1.47,1.25,0,*7C
1499170089.45,16859,16.38,74134.3,5.11,1.47,1.33,0,*78
1499170090.67,16860,16.38,74130.0,5.11,1.47,1.33,0,*72
1499170091.92,16861,16.38,74132.0,5.13,1.51,1.37,0,*72
1499170093.18,16862,16.38,74128.5,5.13,1.37,1.09,0,*7C
1499170094.4,16863,16.38,74126.3,5.13,0.97,0.79,0,*70
1499170095.62,16864,16.38,74130.5,5.13,1.13,0.97,0,*4A
1499170096.83,16865,16.38,74128.3,5.11,0.75,0.59,0,*7A
1499170098.05,16866,16.38,74130.3,5.13,0.97,0.79,0,*75
1499170099.27,16867,16.38,74134.8,5.11,0.83,0.59,0,*71
1499170100.5,16868,16.38,74132.8,5.11,1.37,1.29,0,*76
1499170101.75,16869,16.38,74128.3,5.09,1.67,1.51,0,*74
1499170102.97,16870,16.38,74132.5,5.09,1.79,1.55,0,*77
1499170104.19,16871,16.38,74134.3,5.13,1.83,1.59,0,*74
1499170105.42,16872,16.38,74136.3,5.11,1.55,1.37,0,*76
1499170106.65,16873,16.38,74140.3,5.11,1.55,1.37,0,*77
1499170107.85,16874,16.38,74136.5,5.11,1.33,0.97,0,*4B
1499170109.07,16875,16.38,74136.8,5.11,0.87,0.63,0,*7F
1499170110.3,16876,16.38,74140.5,5.13,0.63,0.41,0,*74
1499170111.49,16877,16.38,74138.3,5.11,0.97,0.71,0,*7F
1499170112.71,16878,16.38,74138.3,5.07,0.51,0.29,0,*70
1499170113.93,16879,16.38,74134.5,5.07,0.51,0.21,0,*79
1499170115.15,16880,16.38,74132.5,5.07,0.55,0.29,0,*73
1499170116.37,16881,16.38,74132.8,5.07,0.79,0.59,0,*7B
1499170117.59,16882,16.38,74132.3,5.03,0.75,0.55,0,*7C
1499170118.79,16883,16.38,74128.0,5.03,1.01,0.91,0,*47
1499170120.06,16884,16.38,74132.3,5.01,1.37,1.21,0,*7D
1499170121.28,16885,16.38,74130.5,5.03,1.51,1.47,0,*7E
1499170122.47,16886,16.38,74128.3,5.03,1.59,1.41,0,*73
1499170123.66,16887,16.38,74128.0,5.03,1.59,1.41,0,*72
1499170124.89,16888,16.38,74134.3,5.03,1.51,1.29,0,*7B